Date of Measurement,Time,Ammonium-nitrogen,Total oxidised nitrogen,Nitrate-nitrogen,Nitrite-nitrogen,Suspended solids,Soluble reactive phosphorus,Dissolved organic carbon,Total phosphorus
Date,Time,Ammonium-nitrogen,Total oxidised nitrogen,Nitrate-nitrogen,Nitrite-nitrogen,Suspended solids,Soluble reactive phosphorus,Dissolved organic carbon,Total phosphorus
Units: Year month day,Units: Hour minute second,Units: milligrams per litre,Units: milligrams per litre,Units: milligrams per litre,Units: milligrams per litre,Units: milligrams per litre,Units: milligrams per litre,Units: milligrams per litre,Units: milligrams per litre
2012-01-03,14:06,< .03,1.95,1.93,0.0198,58.9,0.205,17,0.411
2012-01-03,15:06,0.076,2.27,2.24,0.0279,50.1,0.252,11,0.392
2012-01-03,16:06,0.088,2.36,2.33,0.0256,21.6,0.237,11.2,0.37
2012-01-03,17:06,0.065,2.41,2.38,0.0279,43.4,0.232,11.9,0.365
2012-01-03,18:06,0.065,2.52,2.49,0.0266,34.4,0.223,10.9,0.353
2012-01-03,19:06,0.061,2.65,2.62,0.0261,33.1,0.217,10.4,0.316
2012-01-03,20:06,0.056,2.73,2.7,0.0257,30.4,0.215,10.8,0.299
2012-01-03,21:06,0.062,2.8,2.77,0.0265,26.1,0.199,11.5,0.287
2012-01-03,22:06,0.055,2.81,2.78,0.0259,26.6,0.197,10,0.278
2012-01-03,23:06,0.05,2.83,2.8,0.0258,22.2,0.195,11.5,0.286
2012-01-04,00:06,0.043,2.83,2.81,0.0249,22.7,0.194,10.1,0.268
2012-01-04,01:06,0.041,2.81,2.79,0.0248,21.5,0.192,11.1,0.271
2012-01-04,02:06,0.04,2.87,2.85,0.025,22.2,0.189,11.6,0.26
2012-01-04,03:06,0.041,2.78,2.76,0.0239,21.7,0.181,11.3,0.253
2012-01-04,04:04,0.037,2.85,2.83,0.0235,18.7,0.177,11,0.238
2012-01-04,05:06,0.036,2.81,2.79,0.0234,18.3,0.179,11.2,0.26
2012-01-04,06:06,0.035,2.97,2.95,0.0231,5.08,0.178,11.1,0.238
2012-01-04,07:06,0.034,3.06,3.04,0.0228,17,0.174,10.2,0.235
2012-01-04,08:06,0.033,2.98,2.96,0.0225,14.4,0.174,10.5,0.225
2012-01-04,09:06,0.035,3.04,3.02,0.0236,14,0.174,10.7,0.221
2012-01-04,10:06,0.042,3,2.98,0.0237,16,0.166,5.67,0.222
2012-01-04,11:06,0.031,2.99,2.97,0.0229,14.7,0.163,10.1,0.215
2012-01-04,12:06,2.95,2.98,2.95,0.0267,33.4,0.422,18.3,0.775
2012-01-04,13:06,1.17,2.99,2.96,0.0272,20.7,0.261,11.8,0.37
2012-01-26,10:40,0.079,2.61,2.58,0.0313,10.1,0.101,16.6,0.186
2012-01-26,11:40,0.11,2.71,2.68,0.0318,8.18,0.115,11.5,0.181
2012-01-26,12:40,0.078,2.85,2.82,0.0322,8.53,0.12,11.3,0.181
2012-01-26,13:40,0.069,2.82,2.79,0.032,7.93,0.12,12.8,0.19
2012-01-26,14:40,0.066,2.83,2.8,0.0303,12.2,0.123,11,0.195
2012-01-26,15:40,0.065,2.8,2.77,0.0296,7.73,0.119,11.5,0.184
2012-01-26,16:40,0.082,2.91,2.88,0.0306,8.23,0.123,10.6,0.186
2012-01-26,17:40,0.096,2.81,2.78,0.0327,11.9,0.139,11.6,0.225
2012-01-26,18:40,0.143,2.78,2.75,0.0332,20.3,0.138,12.3,0.252
2012-01-26,19:40,0.258,2.49,2.45,0.0353,56.1,0.155,12.2,0.375
2012-01-26,20:40,0.792,2.03,2,0.0301,113,0.169,10.8,0.661
2012-01-26,21:40,0.881,1.92,1.89,0.0293,103,0.227,13.5,0.747
2012-01-26,22:40,0.958,1.76,1.73,0.0317,86.9,0.287,13.2,0.798
2012-01-26,23:40,0.975,1.77,1.74,0.0325,70.1,0.312,14.5,0.788
2012-01-27,00:40,0.958,1.83,1.8,0.0341,61.3,0.312,15,0.806
2012-01-27,01:40,0.974,1.86,1.83,0.0342,71.6,0.318,16.4,0.792
2012-01-27,02:40,1.14,1.75,1.71,0.0403,105,0.308,13.7,0.932
2012-01-27,03:40,1.2,1.68,1.63,0.0481,105,0.325,14.8,0.915
2012-01-27,04:40,1.21,1.7,1.67,0.0333,90.1,0.338,15.8,0.906
2012-01-27,05:40,1.08,1.78,1.75,0.028,72.3,0.349,15.1,0.819
2012-01-27,06:40,0.952,1.83,1.8,0.0282,58.5,0.36,12.8,0.713
2012-01-27,07:40,0.878,1.93,1.9,0.0286,50.1,0.342,14,0.702
2012-01-27,08:40,0.79,2.05,2.02,0.0306,41,0.331,14.1,0.638
2012-01-27,09:40,0.767,2.17,2.14,0.0342,34.8,0.31,15.3,0.627
2012-06-22,07:07,0.11,0.54,0.308,0.232,174,0.24,30.6,0.833
2012-06-22,08:07,0.319,1.79,1.72,0.0672,129,0.418,17.6,0.903
2012-06-22,09:07,0.239,1.88,1.82,0.065,104,0.418,16.6,0.856
2012-06-22,10:07,0.255,2.05,1.98,0.0696,112,0.461,18.5,0.885
2012-06-22,11:07,0.247,1.91,1.85,0.0589,146,0.55,18.3,1.02
2012-06-22,12:07,< .03,0.92,0.912,0.0077,187,0.591,16.8,1.18
2012-06-22,13:07,0.252,1.83,1.78,0.0523,205,0.604,18.2,1.17
2012-06-22,14:07,0.281,2.1,2.03,0.068,175,0.623,18.2,1.07
2012-06-22,15:07,0.216,1.67,1.62,0.0463,117,0.622,18.6,1.01
2012-06-22,16:07,0.22,1.71,1.66,0.0476,131,0.636,18.3,1.04
2012-06-22,17:07,0.251,1.92,1.87,0.0534,109,0.67,18.4,1.02
2012-06-22,18:07,0.215,1.63,1.58,0.0451,113,0.713,19.7,1.06
2012-06-22,19:07,0.262,1.85,1.8,0.053,91.4,0.711,19.4,1.01
2012-06-22,20:07,0.236,1.87,1.82,0.0514,69.9,0.705,19.2,0.953
2012-06-22,21:07,0.228,1.76,1.71,0.0456,52.1,0.687,19.7,0.901
2012-06-22,22:07,0.212,1.76,1.72,0.0433,38.4,0.651,19.4,0.834
2012-06-22,23:07,0.197,1.72,1.68,0.0426,51,0.616,19.4,0.839
2012-06-23,00:07,0.161,1.46,1.42,0.0396,91.9,0.535,18,0.894
2012-06-23,01:07,0.127,1.09,1.07,0.0225,284,0.466,17.3,0.933
2012-06-23,02:07,0.103,0.9,0.885,0.0154,276,0.45,15.3,1
2012-06-23,03:07,0.085,0.91,0.897,0.0126,258,0.484,15.7,1
2012-06-23,04:07,0.102,0.89,0.876,0.0143,305,0.501,14.2,1.06
2012-06-23,05:07,0.096,0.83,0.816,0.0136,226,0.534,14.6,0.969
2012-06-23,06:07,0.08,0.83,0.818,0.012,219,0.539,15.4,0.892
2012-08-15,17:03,0.326,0.89,0.861,0.0291,15.1,0.101,11,0.249
2012-08-15,18:03,0.422,1.28,1.18,0.105,52.7,0.0848,11.1,0.311
2012-08-15,19:03,0.33,3.16,3.09,0.0737,132,0.294,13.7,0.861
2012-08-15,20:03,0.138,2.87,2.83,0.0445,81.2,0.262,12.9,0.698
2012-08-15,21:03,0.199,3.06,2.96,0.105,37.3,0.255,12,0.497
2012-08-15,22:03,1.02,3.21,3.03,0.185,26.2,0.35,14.2,0.607
2012-08-15,23:03,1.86,2.95,2.78,0.169,23.9,0.492,16.5,0.786
2012-08-16,00:03,0.986,2.36,2.23,0.126,27.7,0.468,14.4,0.701
2012-08-16,01:03,0.439,2.32,2.24,0.0841,18.7,0.353,12.3,0.507
2012-08-16,02:03,0.167,2.56,2.49,0.0681,11.9,0.311,12.6,0.403
2012-08-16,03:03,0.155,3.23,3.15,0.082,16.7,0.285,12.8,0.387
2012-08-16,04:03,0.171,3.79,3.7,0.0896,7.75,0.289,13.7,0.381
2012-08-16,05:03,0.213,3.71,3.63,0.0848,6.57,0.324,13.6,0.427
2012-08-16,06:03,0.169,3.98,3.89,0.0909,5.77,0.347,13.6,0.446
2012-08-16,07:03,0.185,4.09,3.99,0.102,6.57,0.361,12.6,0.449
2012-08-16,08:03,0.188,3.95,3.85,0.104,5.37,0.363,12.3,0.447
2012-08-16,09:03,0.163,3.71,3.61,0.105,7.37,0.355,11.3,0.462
2012-08-16,10:03,0.152,3.52,3.42,0.103,7.22,0.354,13.2,0.465
2012-08-16,11:03,0.189,3.55,3.44,0.112,7.17,0.351,12,0.451
2012-08-16,12:03,0.256,3.31,3.19,0.121,7.32,0.338,13.2,0.449
2012-08-16,13:03,0.389,3.16,3.02,0.137,7.92,0.331,14.8,0.458
2012-08-16,14:03,0.465,3.24,3.08,0.157,7.27,0.319,14.7,0.441
2012-08-16,15:03,0.557,3.18,3,0.181,7.37,0.311,14.2,0.435
2012-08-16,16:03,0.426,2.96,2.8,0.159,9.17,0.295,14.3,0.403
2012-09-24,14:53,0.101,1.75,1.61,0.144,70.9,0.0557,13.2,0.345
2012-09-24,15:53,0.486,1.35,1.29,0.0606,63.2,0.141,13.2,0.929
2012-09-24,16:53,0.227,0.98,0.944,0.0359,468,0.233,13,1.27
2012-09-24,17:53,0.133,1.09,1.06,0.0256,206,0.278,13,1.1
2012-09-24,18:53,0.097,1.22,1.2,0.0188,116,0.303,12.2,1.29
2012-09-24,19:53,0.088,1.2,1.18,0.0174,137,0.325,10.4,1.08
2012-09-24,20:53,0.18,1.33,1.3,0.0253,87,0.368,5.61,1.19
2012-09-24,21:53,0.168,1.44,1.42,0.0232,117,0.438,9.41,1.07
2012-09-24,22:53,0.196,1.24,1.22,0.0234,107,0.49,9.94,
2012-09-24,23:53,0.268,1.24,1.21,0.0273,77.1,0.418,10.6,1.01
2012-09-25,00:53,0.236,1.37,1.34,0.0286,86.1,0.547,11.1,0.985
2012-09-25,01:53,0.275,1.58,1.55,0.0305,77.2,0.537,11.5,0.952
2012-09-25,02:53,0.297,1.92,1.89,0.0326,178,0.521,11,0.857
2012-09-25,03:53,0.333,1.97,1.94,0.0333,146,0.484,12.1,0.768
2012-09-25,04:53,0.262,2.01,1.97,0.0364,151,0.441,12.7,0.716
2012-09-25,05:53,0.202,2.09,2.05,0.0365,123,0.404,13.4,0.647
2012-09-25,06:53,0.16,2.19,2.15,0.0376,98.8,0.378,12.3,0.619
2012-09-25,07:53,0.142,2.09,2.05,0.0365,105,0.359,12.5,0.581
2012-09-25,08:53,0.139,2.09,2.05,0.036,87.3,0.294,12,0.591
2012-09-25,09:53,0.121,2.11,2.07,0.0378,45,0.368,12.2,0.566
2012-09-25,10:53,0.131,2.22,2.18,0.0376,74.1,0.366,12.6,0.574
2012-09-25,11:53,0.145,2.27,2.23,0.0391,60.4,0.365,14.3,0.556
2012-09-25,12:53,0.15,2.42,2.38,0.0391,21.8,0.367,13.3,0.553
2012-09-25,13:53,0.171,2.46,2.42,0.0408,54.2,0.359,15.1,0.556
2013-12-18,15:30,2.35,5.76,5.74,0.0212,136,0.0287,80.6,0.314
2013-12-18,16:30,0.173,6.26,6.24,0.0235,27.7,0.0529,12.8,0.177
2013-12-18,17:30,0.044,6.18,6.16,0.0244,17.3,0.0791,10.2,0.158
2013-12-18,18:30,0.04,6.1,6.07,0.0255,12.5,0.0965,9.86,0.151
2013-12-18,19:30,0.045,6.01,5.98,0.0254,23.1,0.097,9.72,0.172
2013-12-18,20:30,0.455,5.54,5.51,0.0349,76.9,0.154,10.6,0.401
2013-12-18,21:30,0.222,4.47,4.44,0.0313,142,0.17,10.3,0.396
2013-12-18,22:30,0.379,4,3.97,0.0345,160,0.292,12.4,0.772
2013-12-18,23:30,0.279,4,3.97,0.0289,122,0.302,12.4,0.672
2013-12-19,00:30,0.161,3.96,3.94,0.025,116,0.312,12.2,0.684
2013-12-19,01:30,0.204,3.72,3.7,0.0206,125,0.358,12.3,0.743
2013-12-19,02:30,0.199,3.83,3.81,0.0206,99.7,0.382,12.6,0.712
2013-12-19,03:30,0.179,4.14,4.12,0.0216,82.9,0.385,12.6,0.656
2013-12-19,04:30,0.167,4.4,4.38,0.0223,65.4,0.371,12.9,0.61
2013-12-19,05:30,0.136,4.81,4.79,0.0239,56.8,0.351,13.1,0.552
2013-12-19,06:30,0.142,4.8,4.78,0.0231,46.9,0.329,13,0.514
2013-12-19,07:30,0.137,5.02,5,0.0233,43.3,0.308,12.9,0.473
2014-01-15,08:30,0.497,2.53,2.49,0.0354,490,0.115,17.2,0.929
2014-01-15,09:30,0.739,2.42,2.39,0.0302,159,0.264,11.2,0.635
2014-01-15,10:30,0.636,2.24,2.21,0.0283,97,0.284,10.5,0.593
2014-01-15,11:30,0.651,2.21,2.18,0.0253,66.8,0.288,10.7,0.536
2014-01-15,12:30,0.631,2.38,2.35,0.0258,59.1,0.281,11,0.516
2014-01-15,13:30,0.624,2.52,2.49,0.0283,48,0.271,11,0.489
2014-01-15,14:30,0.579,2.68,2.65,0.0313,38.7,0.263,11,0.476
2014-01-15,15:30,0.56,2.74,2.71,0.0318,30.6,0.249,10.9,0.427
2014-01-15,16:30,,,,,,,,
2014-01-15,17:30,0.532,3.04,3,0.036,28.8,0.225,11.2,0.398
2014-01-15,18:30,0.448,3.2,3.16,0.038,20.2,0.213,11,0.363
2014-01-15,19:30,0.417,3.24,3.2,0.0392,20.3,0.206,10.6,0.351
2014-01-28,07:00,0.185,1.66,1.64,0.0199,175,0.199,14.2,0.627
2014-01-28,08:00,0.211,1.81,1.79,0.018,102,0.233,10.4,0.488
2014-01-28,09:00,0.198,1.94,1.92,0.0173,71.9,0.239,9.93,0.482
2014-01-28,10:00,0.179,2.04,2.02,0.0207,80.8,0.247,11.2,0.492
2014-01-28,11:00,0.165,2.19,2.17,0.0194,49.4,0.223,10.6,0.412
2014-01-28,12:00,0.497,2.34,2.31,0.0251,42.3,0.226,11.8,0.36
2014-01-28,13:00,0.199,2.48,2.46,0.0223,36.5,0.205,10.5,0.357
2014-01-28,14:00,0.137,2.59,2.57,0.022,31.3,0.193,10.7,0.307
2014-01-28,15:00,0.123,2.82,2.8,0.0226,30.1,0.188,10.2,0.307
2014-01-28,16:00,0.12,2.7,2.68,0.0225,27.7,0.182,10.3,0.314
2014-01-28,17:00,0.119,2.84,2.82,0.0232,33.8,0.18,10.4,0.309
2014-01-28,18:00,0.142,2.75,2.72,0.0259,29.6,0.181,10.2,0.264
2014-02-05,14:00,0.052,2.65,2.63,0.0238,11.6,0.103,9.29,0.186
2014-02-05,15:00,0.064,2.61,2.58,0.0251,13.4,0.107,9.49,0.197
2014-02-05,16:00,0.076,2.54,2.52,0.0222,50.3,0.101,9.22,0.283
2014-02-05,17:00,0.083,2.01,1.99,0.0219,81.1,0.103,9.18,0.361
2014-02-05,18:00,0.121,1.89,1.87,0.0207,82.5,0.124,9.15,0.393
2014-02-05,19:00,0.137,1.74,1.72,0.0214,88.9,0.14,9.19,0.415
2014-02-05,20:00,0.143,1.53,1.51,0.0174,129,0.154,9.18,0.539
2014-02-05,21:00,0.133,1.26,1.25,0.015,168,0.173,9.06,0.671
2014-02-05,22:00,0.108,1.26,1.24,0.0155,145,0.182,8.84,0.666
2014-02-05,23:00,0.178,1.31,1.29,0.0153,104,0.205,9.34,0.587
2014-02-06,00:00,0.137,1.36,1.34,0.017,103,0.217,8.96,0.57
2014-02-06,01:00,0.153,1.6,1.58,0.0159,75.3,0.222,9.02,0.526
2014-02-08,07:30,0.266,1.38,1.35,0.0282,79.2,0.177,9.82,0.571
2014-02-08,09:30,0.27,1.53,1.51,0.0171,64.2,0.211,9.81,0.552
2014-02-08,11:30,0.248,1.71,1.69,0.0195,55,0.267,9.54,0.496
2014-02-08,13:30,0.2,2.03,2.01,0.0217,35.1,0.203,9.86,0.417
2014-02-08,15:30,0.167,2.25,2.23,0.0232,31.3,0.179,9.75,0.369
2014-02-08,17:30,0.3,2.01,1.99,0.0239,41.8,0.176,10.3,0.431
2014-02-08,19:30,0.426,1.8,1.78,0.0224,65.1,0.182,9.99,0.51
2014-02-08,21:30,0.903,1.39,1.37,0.021,125,0.255,12,0.931
2014-02-08,23:30,1.02,1.35,1.33,0.0189,102,0.294,12.5,0.867
2014-02-09,01:30,0.725,1.55,1.53,0.0194,83.1,0.332,11,0.706
2014-02-09,03:30,0.439,1.75,1.73,0.0203,61.6,0.254,10,0.625
2014-02-09,05:30,0.667,1.8,1.78,0.0192,58.5,0.265,11.8,0.659
2014-02-12,12:30,0.13,2.7,2.68,0.0249,32.7,0.101,10.1,0.224
2014-02-12,14:30,0.215,1.61,1.59,0.0164,171,0.142,8.48,0.675
2014-02-12,16:30,0.354,1.15,1.14,0.0134,154,0.222,8.39,0.761
2014-02-12,18:30,0.227,1.17,1.16,0.012,124,0.21,8.06,0.63
2014-02-12,20:30,0.224,1.32,1.31,0.0131,83.9,0.213,8.72,0.53
2014-02-12,22:30,0.237,1.2,1.19,0.0124,64.7,0.21,8.01,0.786
2014-02-13,00:30,0.215,1.2,1.19,0.0121,457,0.223,7.64,0.967
2014-02-13,02:30,0.228,1.39,1.38,0.0118,125,0.228,7.98,0.659
2014-02-13,04:30,0.252,1.65,1.64,0.012,91.4,0.226,8.49,0.505
2014-02-13,06:30,0.234,1.86,1.85,0.013,57.4,0.233,8.5,0.452
2014-02-13,08:30,0.212,2.12,2.11,0.0143,44,0.225,8.83,0.412
2014-02-13,10:30,0.202,2.28,2.26,0.0153,25.4,0.204,9.27,0.361
